Location: Betpouey
(42.8833°N, 0.0333°E)
Time: 07:52:51
(UTC+00:00)

CZ-4 R/B - Pass Details

Date: 01 December 2020
Orbit: 533 x 597 km, 97.7° (Epoch: 17 January)

Event Time Altitude Azimuth Distance (km) Brightness Sun altitude
Rises 19:09:28 0° 188° (S) 2,706 5.0 -29.2°
Enters shadow 19:11:18 - 196° (SSW) 1,985 4.4 -29.5°
Exits shadow 19:17:18 21° 312° (NW) 1,301 3.6 -30.6°
Drops below altitude 10° 19:19:00 10° 328° (NNW) 1,877 4.3 -30.9°
Sets 19:21:21 0° 338° (NNW) 2,792 5.2 -31.4°
